When you browse on this site, cookies collect data to enhance your experience and personalize the content and advertising you see.
Visit our Privacy Policy to learn more. By continuing to use the site, you agree to this use of cookies and data.
  • In Hungary
  • List of Countries
  • For 7 days
  • Water Temperature
  • Satellite Maps
  • Weather Map
  • News
  • Weather Widgets
  • user-avatar
    Login

    Hourly Weather Fanzeres

    Today, 16 July, Tuesday

    Time Temperature Precipitation Wind Pressure Humidity
    00:00 +20°C° 0 mm 1 mps 752 mmHg 88%
    01:00 +20°C° 0 mm 1 mps 752 mmHg 88%
    02:00 +20°C° 0 mm 1 mps 751 mmHg 89%
    03:00 +20°C° 0 mm 1 mps 751 mmHg 88%
    04:00 +18°C° 0 mm 0 mps 751 mmHg 88%
    05:00 +18°C° 0 mm 0 mps 751 mmHg 88%
    06:00 +23°C° 0 mm 1 mps 751 mmHg 78%
    07:00 +25°C° 0 mm 1 mps 751 mmHg 68%
    08:00 +27°C° 0 mm 1 mps 751 mmHg 58%
    09:00 +28°C° 0 mm 2 mps 751 mmHg 52%
    10:00 +30°C° 0 mm 3 mps 751 mmHg 47%
    11:00 +33°C° 0 mm 3 mps 751 mmHg 41%
    12:00 +32°C° 0 mm 4 mps 751 mmHg 42%
    13:00 +32°C° 0 mm 4 mps 750 mmHg 43%
    14:00 +30°C° 0 mm 5 mps 750 mmHg 44%
    15:00 +30°C° 0 mm 5 mps 750 mmHg 46%
    16:00 +29°C° 0 mm 5 mps 750 mmHg 49%
    17:00 +28°C° 0 mm 5 mps 750 mmHg 51%
    18:00 +26°C° 0 mm 4 mps 750 mmHg 57%
    19:00 +25°C° 0 mm 4 mps 751 mmHg 63%
    20:00 +22°C° 0 mm 3 mps 751 mmHg 70%
    21:00 +22°C° 0 mm 3 mps 751 mmHg 71%
    22:00 +21°C° 0 mm 3 mps 751 mmHg 72%
    23:00 +21°C° 0 mm 3 mps 751 mmHg 73%

    Tomorrow, 17 July, Wednesday

    Time Temperature Precipitation Wind Pressure Humidity
    00:00 +20°C° 0 mm 3 mps 751 mmHg 75%
    01:00 +20°C° 0 mm 2 mps 751 mmHg 78%
    02:00 +19°C° 0 mm 2 mps 751 mmHg 81%
    03:00 +19°C° 0 mm 2 mps 751 mmHg 81%
    04:00 +19°C° 0 mm 2 mps 751 mmHg 81%
    05:00 +19°C° 0 mm 2 mps 751 mmHg 81%
    06:00 +21°C° 0 mm 2 mps 751 mmHg 73%
    07:00 +24°C° 0 mm 2 mps 752 mmHg 65%
    08:00 +26°C° 0 mm 3 mps 752 mmHg 58%
    09:00 +27°C° 0 mm 4 mps 752 mmHg 54%
    10:00 +29°C° 0 mm 5 mps 752 mmHg 50%
    11:00 +30°C° 0 mm 6 mps 752 mmHg 46%
    12:00 +30°C° 0 mm 6 mps 752 mmHg 46%
    13:00 +30°C° 0 mm 7 mps 752 mmHg 47%
    14:00 +29°C° 0 mm 7 mps 751 mmHg 48%
    15:00 +28°C° 0 mm 7 mps 751 mmHg 50%
    16:00 +28°C° 0 mm 7 mps 751 mmHg 52%
    17:00 +27°C° 0 mm 7 mps 751 mmHg 55%
    18:00 +24°C° 0 mm 6 mps 752 mmHg 60%
    19:00 +22°C° 0 mm 5 mps 752 mmHg 66%
    20:00 +21°C° 0 mm 4 mps 753 mmHg 72%
    21:00 +20°C° 0 mm 4 mps 753 mmHg 74%
    22:00 +20°C° 0 mm 4 mps 753 mmHg 76%
    23:00 +19°C° 0 mm 3 mps 753 mmHg 78%

    Day after tomorrow, 18 July, Thursday

    Time Temperature Precipitation Wind Pressure Humidity
    00:00 +19°C° 0 mm 3 mps 753 mmHg 80%
    01:00 +18°C° 0 mm 3 mps 753 mmHg 81%
    02:00 +18°C° 0 mm 3 mps 753 mmHg 83%
    03:00 +18°C° 0 mm 3 mps 753 mmHg 81%
    04:00 +18°C° 0 mm 3 mps 753 mmHg 80%
    05:00 +18°C° 0 mm 3 mps 753 mmHg 78%
    06:00 +20°C° 0 mm 3 mps 753 mmHg 66%
    07:00 +22°C° 0 mm 3 mps 753 mmHg 54%
    08:00 +26°C° 0 mm 3 mps 753 mmHg 42%
    09:00 +28°C° 0 mm 4 mps 753 mmHg 37%
    10:00 +29°C° 0 mm 5 mps 753 mmHg 31%
    11:00 +32°C° 0 mm 5 mps 753 mmHg 26%
    12:00 +32°C° 0 mm 6 mps 752 mmHg 30%
    13:00 +32°C° 0 mm 7 mps 752 mmHg 34%
    14:00 +32°C° 0 mm 7 mps 752 mmHg 38%
    15:00 +30°C° 0 mm 7 mps 752 mmHg 42%
    16:00 +29°C° 0 mm 7 mps 752 mmHg 46%
    17:00 +28°C° 0 mm 6 mps 752 mmHg 50%
    18:00 +26°C° 0 mm 5 mps 752 mmHg 56%
    19:00 +25°C° 0 mm 4 mps 752 mmHg 62%
    20:00 +22°C° 0 mm 4 mps 753 mmHg 68%
    21:00 +22°C° 0 mm 3 mps 753 mmHg 69%
    22:00 +21°C° 0 mm 3 mps 753 mmHg 71%
    23:00 +21°C° 0 mm 3 mps 753 mmHg 72%

    19 July, Friday

    Time Temperature Precipitation Wind Pressure Humidity
    00:00 +21°C° 0 mm 3 mps 753 mmHg 72%
    01:00 +20°C° 0 mm 3 mps 752 mmHg 72%
    02:00 +20°C° 0 mm 2 mps 752 mmHg 72%
    03:00 +20°C° 0 mm 2 mps 752 mmHg 71%
    04:00 +20°C° 0 mm 2 mps 752 mmHg 69%
    05:00 +20°C° 0 mm 2 mps 752 mmHg 68%
    06:00 +24°C° 0 mm 2 mps 752 mmHg 59%
    07:00 +26°C° 0 mm 3 mps 752 mmHg 51%
    08:00 +29°C° 0 mm 3 mps 753 mmHg 42%
    09:00 +30°C° 0 mm 4 mps 752 mmHg 39%
    10:00 +33°C° 0 mm 4 mps 752 mmHg 36%
    11:00 +34°C° 0 mm 5 mps 752 mmHg 33%
    12:00 +34°C° 0 mm 6 mps 752 mmHg 34%
    13:00 +34°C° 0 mm 6 mps 751 mmHg 36%
    14:00 +34°C° 0 mm 7 mps 751 mmHg 38%
    15:00 +32°C° 0 mm 7 mps 751 mmHg 42%
    16:00 +30°C° 0 mm 7 mps 751 mmHg 46%
    17:00 +29°C° 0 mm 6 mps 751 mmHg 50%
    18:00 +27°C° 0 mm 6 mps 751 mmHg 58%
    19:00 +25°C° 0 mm 5 mps 751 mmHg 65%
    20:00 +22°C° 0 mm 4 mps 752 mmHg 72%
    21:00 +22°C° 0 mm 4 mps 752 mmHg 74%
    22:00 +22°C° 0 mm 3 mps 752 mmHg 76%
    23:00 +21°C° 0 mm 2 mps 752 mmHg 78%

    20 July, Saturday

    Time Temperature Precipitation Wind Pressure Humidity
    00:00 +21°C° 0 mm 2 mps 751 mmHg 79%
    01:00 +21°C° 0 mm 2 mps 751 mmHg 81%
    02:00 +20°C° 0 mm 2 mps 751 mmHg 82%
    03:00 +20°C° 0 mm 2 mps 751 mmHg 81%
    04:00 +20°C° 0 mm 2 mps 751 mmHg 80%
    05:00 +20°C° 0 mm 2 mps 751 mmHg 80%
    06:00 +24°C° 0 mm 2 mps 751 mmHg 69%
    07:00 +27°C° 0 mm 2 mps 752 mmHg 59%
    08:00 +29°C° 0 mm 3 mps 752 mmHg 48%
    09:00 +32°C° 0 mm 4 mps 752 mmHg 44%
    10:00 +33°C° 0 mm 5 mps 752 mmHg 39%
    11:00 +34°C° 0 mm 5 mps 752 mmHg 35%
    12:00 +34°C° 0 mm 6 mps 752 mmHg 36%
    13:00 +34°C° 0 mm 7 mps 751 mmHg 37%
    14:00 +34°C° 0 mm 7 mps 751 mmHg 38%
    15:00 +33°C° 0 mm 7 mps 751 mmHg 41%
    16:00 +32°C° 0 mm 7 mps 751 mmHg 44%
    17:00 +30°C° 0 mm 6 mps 751 mmHg 47%
    18:00 +28°C° 0 mm 5 mps 752 mmHg 54%
    19:00 +26°C° 0 mm 5 mps 752 mmHg 60%
    20:00 +23°C° 0 mm 4 mps 753 mmHg 67%
    21:00 +24°C° 0 mm 3 mps 753 mmHg 69%
    22:00 +22°C° 0 mm 3 mps 753 mmHg 71%
    23:00 +23°C° 0 mm 2 mps 753 mmHg 72%

    21 July, Sunday

    Time Temperature Precipitation Wind Pressure Humidity
    00:00 +21°C° 0 mm 2 mps 753 mmHg 74%
    01:00 +21°C° 0 mm 2 mps 752 mmHg 76%
    02:00 +21°C° 0 mm 2 mps 752 mmHg 78%
    03:00 +21°C° 0 mm 2 mps 752 mmHg 78%
    04:00 +21°C° 0 mm 2 mps 752 mmHg 79%
    05:00 +21°C° 0 mm 2 mps 753 mmHg 79%
    06:00 +24°C° 0 mm 2 mps 753 mmHg 70%
    07:00 +27°C° 0 mm 2 mps 753 mmHg 60%
    08:00 +29°C° 0 mm 2 mps 753 mmHg 51%
    09:00 +30°C° 0 mm 3 mps 753 mmHg 46%
    10:00 +32°C° 0 mm 4 mps 753 mmHg 40%
    11:00 +34°C° 0 mm 5 mps 753 mmHg 35%
    12:00 +33°C° 0 mm 5 mps 753 mmHg 35%
    13:00 +33°C° 0 mm 6 mps 753 mmHg 36%
    14:00 +32°C° 0 mm 7 mps 753 mmHg 36%
    15:00 +30°C° 0 mm 7 mps 753 mmHg 38%
    16:00 +29°C° 0 mm 6 mps 753 mmHg 40%
    17:00 +28°C° 0 mm 6 mps 753 mmHg 42%
    18:00 +27°C° 0 mm 5 mps 754 mmHg 48%
    19:00 +25°C° 0 mm 4 mps 754 mmHg 55%
    20:00 +22°C° 0 mm 4 mps 755 mmHg 61%
    21:00 +21°C° 0 mm 3 mps 755 mmHg 64%
    22:00 +21°C° 0 mm 3 mps 755 mmHg 67%
    23:00 +20°C° 0 mm 3 mps 755 mmHg 70%
    Show more